AEHF-6 (USA 298)

Last updated on Tue Sep 22 2026 00:03:15 GMT+0000 (Coordinated Universal Time)

1 45465U 20022B 26264.57559681 -.00000304 00000+0 00000+0 0 9992 2 45465 2.3498 302.6089 0042259 10.5845 32.1503 1.00267593 23984
UTC large
Height (km)
Speed (km/s)
/
Latitude / Longitude
Inclination (degrees)
Orbital Period (minutes)
Azimuth
Elevation
Range (km)
Doppler Factor

Next 0 passes for location: London (51.5072 / 0.1276)

No passes found over London.
AEHF-6 (USA 298)